owner,sensor,date,latitude,longitude,vertical_datum,wind_speed,wind_to_direction,wind_speed_of_gust,qcFlag 
DISL,ioos:station:DISL:DISL:1,2017-10-01T00:00:00Z,30.2513,-88.0778,9.68,4.6,43.95,-999.0,'1111122,1111122,1111122' 
DISL,ioos:station:DISL:DISL:1,2017-10-01T00:30:00Z,30.2513,-88.0778,9.68,3.55,7.377,-999.0,'1111122,1111122,1111122' 
DISL,ioos:station:DISL:DISL:1,2017-10-01T01:00:00Z,30.2513,-88.0778,9.68,3.31,346.4,-999.0,'1111122,1111122,1111122' 
DISL,ioos:station:DISL:DISL:1,2017-10-01T01:30:00Z,30.2513,-88.0778,9.68,4.51,13.98,-999.0,'1111122,1111122,1111122' 
DISL,ioos:station:DISL:DISL:1,2017-10-01T02:00:00Z,30.2513,-88.0778,9.68,5.51,55.43,-999.0,'1111122,1111122,1111122' 
DISL,ioos:station:DISL:DISL:1,2017-10-01T02:30:00Z,30.2513,-88.0778,9.68,4.2,64.45,-999.0,'1111122,1111122,1111122' 
DISL,ioos:station:DISL:DISL:1,2017-10-01T03:00:00Z,30.2513,-88.0778,9.68,3.09,32.5,-999.0,'1111122,1111122,1111122' 
DISL,ioos:station:DISL:DISL:1,2017-10-01T03:30:00Z,30.2513,-88.0778,9.68,2.07,18.4,-999.0,'1111122,1111122,1111122' 
DISL,ioos:station:DISL:DISL:1,2017-10-01T04:00:00Z,30.2513,-88.0778,9.68,4.2,11.28,-999.0,'1111122,1111122,1111122' 
DISL,ioos:station:DISL:DISL:1,2017-10-01T04:30:00Z,30.2513,-88.0778,9.68,8.51,68.41,-999.0,'1111122,1111122,1111122' 
DISL,ioos:station:DISL:DISL:1,2017-10-01T05:00:00Z,30.2513,-88.0778,9.68,8.06,45.43,-999.0,'1111122,1111122,1111122' 
DISL,ioos:station:DISL:DISL:1,2017-10-01T05:30:00Z,30.2513,-88.0778,9.68,7.51,60.59,-999.0,'1111122,1111122,1111122' 
DISL,ioos:station:DISL:DISL:1,2017-10-01T06:00:00Z,30.2513,-88.0778,9.68,7.19,56.01,-999.0,'1111122,1111122,1111122' 
DISL,ioos:station:DISL:DISL:1,2017-10-01T06:30:00Z,30.2513,-88.0778,9.68,6.6,66.9,-999.0,'1111122,1111122,1111122' 
DISL,ioos:station:DISL:DISL:1,2017-10-01T07:00:00Z,30.2513,-88.0778,9.68,11.4,106.7,-999.0,'1111122,1111122,1111122' 
DISL,ioos:station:DISL:DISL:1,2017-10-01T07:30:00Z,30.2513,-88.0778,9.68,8.44,109.0,-999.0,'1111122,1111122,1111122' 
DISL,ioos:station:DISL:DISL:1,2017-10-01T08:00:00Z,30.2513,-88.0778,9.68,9.89,115.1,-999.0,'1111122,1111122,1111122' 
DISL,ioos:station:DISL:DISL:1,2017-10-01T08:30:00Z,30.2513,-88.0778,9.68,8.1,106.1,-999.0,'1111122,1111122,1111122' 
DISL,ioos:station:DISL:DISL:1,2017-10-01T09:00:00Z,30.2513,-88.0778,9.68,10.11,77.56,-999.0,'1111122,1111122,1111122' 
DISL,ioos:station:DISL:DISL:1,2017-10-01T09:30:00Z,30.2513,-88.0778,9.68,7.61,111.1,-999.0,'1111122,1111122,1111122' 
DISL,ioos:station:DISL:DISL:1,2017-10-01T10:00:00Z,30.2513,-88.0778,9.68,3.94,101.0,-999.0,'1111122,1111122,1111122' 
DISL,ioos:station:DISL:DISL:1,2017-10-01T10:30:00Z,30.2513,-88.0778,9.68,6.02,49.64,-999.0,'1111122,1111122,1111122' 
DISL,ioos:station:DISL:DISL:1,2017-10-01T11:00:00Z,30.2513,-88.0778,9.68,7.29,67.9,-999.0,'1111122,1111122,1111122' 
DISL,ioos:station:DISL:DISL:1,2017-10-01T11:30:00Z,30.2513,-88.0778,9.68,9.31,67.77,-999.0,'1111122,1111122,1111122' 
DISL,ioos:station:DISL:DISL:1,2017-10-01T12:00:00Z,30.2513,-88.0778,9.68,10.07,72.74,-999.0,'1111122,1111122,1111122' 
DISL,ioos:station:DISL:DISL:1,2017-10-01T12:30:00Z,30.2513,-88.0778,9.68,10.23,73.58,-999.0,'1111122,1111122,1111122' 
DISL,ioos:station:DISL:DISL:1,2017-10-01T13:00:00Z,30.2513,-88.0778,9.68,9.83,77.54,-999.0,'1111122,1111122,1111122' 
DISL,ioos:station:DISL:DISL:1,2017-10-01T13:30:00Z,30.2513,-88.0778,9.68,9.78,76.66,-999.0,'1111122,1111122,1111122' 
DISL,ioos:station:DISL:DISL:1,2017-10-01T14:00:00Z,30.2513,-88.0778,9.68,9.19,77.44,-999.0,'1111122,1111122,1111122' 
DISL,ioos:station:DISL:DISL:1,2017-10-01T14:30:00Z,30.2513,-88.0778,9.68,9.16,82.3,-999.0,'1111122,1111122,1111122' 
DISL,ioos:station:DISL:DISL:1,2017-10-01T15:00:00Z,30.2513,-88.0778,9.68,8.84,77.81,-999.0,'1111122,1111122,1111122' 
DISL,ioos:station:DISL:DISL:1,2017-10-01T15:30:00Z,30.2513,-88.0778,9.68,9.19,79.62,-999.0,'1111122,1111122,1111122' 
DISL,ioos:station:DISL:DISL:1,2017-10-01T16:00:00Z,30.2513,-88.0778,9.68,9.1,84.1,-999.0,'1111122,1111122,1111122' 
DISL,ioos:station:DISL:DISL:1,2017-10-01T16:30:00Z,30.2513,-88.0778,9.68,7.24,75.33,-999.0,'1111122,1111122,1111122' 
DISL,ioos:station:DISL:DISL:1,2017-10-01T17:00:00Z,30.2513,-88.0778,9.68,8.53,76.35,-999.0,'1111122,1111122,1111122' 
DISL,ioos:station:DISL:DISL:1,2017-10-01T17:30:00Z,30.2513,-88.0778,9.68,7.07,69.2,-999.0,'1111122,1111122,1111122' 
DISL,ioos:station:DISL:DISL:1,2017-10-01T18:00:00Z,30.2513,-88.0778,9.68,7.21,74.91,-999.0,'1111122,1111122,1111122' 
DISL,ioos:station:DISL:DISL:1,2017-10-01T18:30:00Z,30.2513,-88.0778,9.68,6.81,82.3,-999.0,'1111122,1111122,1111122' 
DISL,ioos:station:DISL:DISL:1,2017-10-01T19:00:00Z,30.2513,-88.0778,9.68,7.52,98.5,-999.0,'1111122,1111122,1111122' 
DISL,ioos:station:DISL:DISL:1,2017-10-01T19:30:00Z,30.2513,-88.0778,9.68,7.41,88.4,-999.0,'1111122,1111122,1111122' 
DISL,ioos:station:DISL:DISL:1,2017-10-01T20:00:00Z,30.2513,-88.0778,9.68,7.34,84.5,-999.0,'1111122,1111122,1111122' 
DISL,ioos:station:DISL:DISL:1,2017-10-01T20:30:00Z,30.2513,-88.0778,9.68,10.03,70.04,-999.0,'1111122,1111122,1111122' 
DISL,ioos:station:DISL:DISL:1,2017-10-01T21:00:00Z,30.2513,-88.0778,9.68,9.71,68.03,-999.0,'1111122,1111122,1111122' 
DISL,ioos:station:DISL:DISL:1,2017-10-01T21:30:00Z,30.2513,-88.0778,9.68,10.38,70.53,-999.0,'1111122,1111122,1111122' 
DISL,ioos:station:DISL:DISL:1,2017-10-01T22:00:00Z,30.2513,-88.0778,9.68,10.53,75.09,-999.0,'1111122,1111122,1111122' 
DISL,ioos:station:DISL:DISL:1,2017-10-01T22:30:00Z,30.2513,-88.0778,9.68,10.43,74.14,-999.0,'1111122,1111122,1111122' 
DISL,ioos:station:DISL:DISL:1,2017-10-01T23:00:00Z,30.2513,-88.0778,9.68,9.12,63.05,-999.0,'1111122,1111122,1111122' 
DISL,ioos:station:DISL:DISL:1,2017-10-01T23:30:00Z,30.2513,-88.0778,9.68,10.2,54.03,-999.0,'1111122,1111122,1111122' 
DISL,ioos:station:DISL:DISL:1,2017-10-02T00:00:00Z,30.2513,-88.0778,9.68,10.1,64.03,-999.0,'1111122,1111122,1111122' 
DISL,ioos:station:DISL:DISL:1,2017-10-02T00:30:00Z,30.2513,-88.0778,9.68,12.0,60.48,-999.0,'1111122,1111122,1111122' 
DISL,ioos:station:DISL:DISL:1,2017-10-02T01:00:00Z,30.2513,-88.0778,9.68,10.99,56.54,-999.0,'1111122,1111122,1111122' 
DISL,ioos:station:DISL:DISL:1,2017-10-02T01:30:00Z,30.2513,-88.0778,9.68,10.77,62.9,-999.0,'1111122,1111122,1111122' 
DISL,ioos:station:DISL:DISL:1,2017-10-02T02:00:00Z,30.2513,-88.0778,9.68,11.15,65.85,-999.0,'1111122,1111122,1111122' 
DISL,ioos:station:DISL:DISL:1,2017-10-02T02:30:00Z,30.2513,-88.0778,9.68,11.34,63.06,-999.0,'1111122,1111122,1111122' 
DISL,ioos:station:DISL:DISL:1,2017-10-02T03:00:00Z,30.2513,-88.0778,9.68,10.91,63.24,-999.0,'1111122,1111122,1111122' 
DISL,ioos:station:DISL:DISL:1,2017-10-02T03:30:00Z,30.2513,-88.0778,9.68,11.12,64.04,-999.0,'1111122,1111122,1111122' 
DISL,ioos:station:DISL:DISL:1,2017-10-02T04:00:00Z,30.2513,-88.0778,9.68,10.43,66.95,-999.0,'1111122,1111122,1111122' 
DISL,ioos:station:DISL:DISL:1,2017-10-02T04:30:00Z,30.2513,-88.0778,9.68,10.61,69.45,-999.0,'1111122,1111122,1111122' 
DISL,ioos:station:DISL:DISL:1,2017-10-02T05:00:00Z,30.2513,-88.0778,9.68,10.88,69.93,-999.0,'1111122,1111122,1111122' 
DISL,ioos:station:DISL:DISL:1,2017-10-02T05:30:00Z,30.2513,-88.0778,9.68,10.56,71.47,-999.0,'1111122,1111122,1111122' 
DISL,ioos:station:DISL:DISL:1,2017-10-02T06:00:00Z,30.2513,-88.0778,9.68,10.8,69.87,-999.0,'1111122,1111122,1111122' 
DISL,ioos:station:DISL:DISL:1,2017-10-02T06:30:00Z,30.2513,-88.0778,9.68,10.9,76.52,-999.0,'1111122,1111122,1111122' 
DISL,ioos:station:DISL:DISL:1,2017-10-02T07:00:00Z,30.2513,-88.0778,9.68,11.38,79.59,-999.0,'1111122,1111122,1111122' 
DISL,ioos:station:DISL:DISL:1,2017-10-02T07:30:00Z,30.2513,-88.0778,9.68,11.4,75.73,-999.0,'1111122,1111122,1111122' 
DISL,ioos:station:DISL:DISL:1,2017-10-02T08:00:00Z,30.2513,-88.0778,9.68,10.8,78.96,-999.0,'1111122,1111122,1111122' 
DISL,ioos:station:DISL:DISL:1,2017-10-02T08:30:00Z,30.2513,-88.0778,9.68,10.04,73.08,-999.0,'1111122,1111122,1111122' 
DISL,ioos:station:DISL:DISL:1,2017-10-02T09:00:00Z,30.2513,-88.0778,9.68,9.87,81.3,-999.0,'1111122,1111122,1111122' 
DISL,ioos:station:DISL:DISL:1,2017-10-02T09:30:00Z,30.2513,-88.0778,9.68,8.91,78.08,-999.0,'1111122,1111122,1111122' 
DISL,ioos:station:DISL:DISL:1,2017-10-02T10:00:00Z,30.2513,-88.0778,9.68,10.82,91.7,-999.0,'1111122,1111122,1111122' 
DISL,ioos:station:DISL:DISL:1,2017-10-02T10:30:00Z,30.2513,-88.0778,9.68,11.08,87.7,-999.0,'1111122,1111122,1111122' 
DISL,ioos:station:DISL:DISL:1,2017-10-02T11:00:00Z,30.2513,-88.0778,9.68,9.49,55.41,-999.0,'1111122,1111122,1111122' 
DISL,ioos:station:DISL:DISL:1,2017-10-02T11:30:00Z,30.2513,-88.0778,9.68,9.43,65.83,-999.0,'1111122,1111122,1111122' 
DISL,ioos:station:DISL:DISL:1,2017-10-02T12:00:00Z,30.2513,-88.0778,9.68,9.7,61.0,-999.0,'1111122,1111122,1111122' 
DISL,ioos:station:DISL:DISL:1,2017-10-02T12:30:00Z,30.2513,-88.0778,9.68,9.63,62.83,-999.0,'1111122,1111122,1111122' 
DISL,ioos:station:DISL:DISL:1,2017-10-02T13:00:00Z,30.2513,-88.0778,9.68,10.04,74.17,-999.0,'1111122,1111122,1111122' 
DISL,ioos:station:DISL:DISL:1,2017-10-02T13:30:00Z,30.2513,-88.0778,9.68,10.16,73.16,-999.0,'1111122,1111122,1111122' 
DISL,ioos:station:DISL:DISL:1,2017-10-02T14:00:00Z,30.2513,-88.0778,9.68,10.4,75.18,-999.0,'1111122,1111122,1111122' 
DISL,ioos:station:DISL:DISL:1,2017-10-02T14:30:00Z,30.2513,-88.0778,9.68,10.26,78.87,-999.0,'1111122,1111122,1111122' 
DISL,ioos:station:DISL:DISL:1,2017-10-02T15:00:00Z,30.2513,-88.0778,9.68,11.13,80.8,-999.0,'1111122,1111122,1111122' 
DISL,ioos:station:DISL:DISL:1,2017-10-02T15:30:00Z,30.2513,-88.0778,9.68,11.17,84.4,-999.0,'1111122,1111122,1111122' 
DISL,ioos:station:DISL:DISL:1,2017-10-02T16:00:00Z,30.2513,-88.0778,9.68,11.72,87.8,-999.0,'1111122,1111122,1111122' 
DISL,ioos:station:DISL:DISL:1,2017-10-02T16:30:00Z,30.2513,-88.0778,9.68,10.46,94.0,-999.0,'1111122,1111122,1111122' 
DISL,ioos:station:DISL:DISL:1,2017-10-02T17:00:00Z,30.2513,-88.0778,9.68,11.32,90.5,-999.0,'1111122,1111122,1111122' 
DISL,ioos:station:DISL:DISL:1,2017-10-02T17:30:00Z,30.2513,-88.0778,9.68,11.56,92.9,-999.0,'1111122,1111122,1111122' 
DISL,ioos:station:DISL:DISL:1,2017-10-02T18:00:00Z,30.2513,-88.0778,9.68,11.08,92.2,-999.0,'1111122,1111122,1111122' 
DISL,ioos:station:DISL:DISL:1,2017-10-02T18:30:00Z,30.2513,-88.0778,9.68,11.25,97.4,-999.0,'1111122,1111122,1111122' 
DISL,ioos:station:DISL:DISL:1,2017-10-02T19:00:00Z,30.2513,-88.0778,9.68,11.24,91.6,-999.0,'1111122,1111122,1111122' 
DISL,ioos:station:DISL:DISL:1,2017-10-02T19:30:00Z,30.2513,-88.0778,9.68,12.0,93.8,-999.0,'1111122,1111122,1111122' 
DISL,ioos:station:DISL:DISL:1,2017-10-02T20:00:00Z,30.2513,-88.0778,9.68,10.8,90.5,-999.0,'1111122,1111122,1111122' 
DISL,ioos:station:DISL:DISL:1,2017-10-02T20:30:00Z,30.2513,-88.0778,9.68,10.06,81.1,-999.0,'1111122,1111122,1111122' 
DISL,ioos:station:DISL:DISL:1,2017-10-02T21:00:00Z,30.2513,-88.0778,9.68,9.42,73.16,-999.0,'1111122,1111122,1111122' 
DISL,ioos:station:DISL:DISL:1,2017-10-02T21:30:00Z,30.2513,-88.0778,9.68,9.21,81.7,-999.0,'1111122,1111122,1111122' 
DISL,ioos:station:DISL:DISL:1,2017-10-02T22:00:00Z,30.2513,-88.0778,9.68,8.59,80.4,-999.0,'1111122,1111122,1111122' 
DISL,ioos:station:DISL:DISL:1,2017-10-02T22:30:00Z,30.2513,-88.0778,9.68,10.21,82.8,-999.0,'1111122,1111122,1111122' 
DISL,ioos:station:DISL:DISL:1,2017-10-02T23:00:00Z,30.2513,-88.0778,9.68,9.71,91.7,-999.0,'1111122,1111122,1111122' 
DISL,ioos:station:DISL:DISL:1,2017-10-02T23:30:00Z,30.2513,-88.0778,9.68,10.07,95.2,-999.0,'1111122,1111122,1111122' 
DISL,ioos:station:DISL:DISL:1,2017-10-03T00:00:00Z,30.2513,-88.0778,9.68,10.53,99.3,-999.0,'1111122,1111122,1111122' 
DISL,ioos:station:DISL:DISL:1,2017-10-03T00:30:00Z,30.2513,-88.0778,9.68,10.52,96.6,-999.0,'1111122,1111122,1111122' 
DISL,ioos:station:DISL:DISL:1,2017-10-03T01:00:00Z,30.2513,-88.0778,9.68,9.42,90.1,-999.0,'1111122,1111122,1111122' 
DISL,ioos:station:DISL:DISL:1,2017-10-03T01:30:00Z,30.2513,-88.0778,9.68,9.93,86.1,-999.0,'1111122,1111122,1111122' 
DISL,ioos:station:DISL:DISL:1,2017-10-03T02:00:00Z,30.2513,-88.0778,9.68,8.6,80.4,-999.0,'1111122,1111122,1111122' 
DISL,ioos:station:DISL:DISL:1,2017-10-03T02:30:00Z,30.2513,-88.0778,9.68,8.48,76.4,-999.0,'1111122,1111122,1111122' 
DISL,ioos:station:DISL:DISL:1,2017-10-03T03:00:00Z,30.2513,-88.0778,9.68,8.5,78.82,-999.0,'1111122,1111122,1111122' 
DISL,ioos:station:DISL:DISL:1,2017-10-03T03:30:00Z,30.2513,-88.0778,9.68,7.92,73.26,-999.0,'1111122,1111122,1111122' 
DISL,ioos:station:DISL:DISL:1,2017-10-03T04:00:00Z,30.2513,-88.0778,9.68,7.49,68.9,-999.0,'1111122,1111122,1111122' 
DISL,ioos:station:DISL:DISL:1,2017-10-03T04:30:00Z,30.2513,-88.0778,9.68,8.03,75.64,-999.0,'1111122,1111122,1111122' 
DISL,ioos:station:DISL:DISL:1,2017-10-03T05:00:00Z,30.2513,-88.0778,9.68,8.04,80.6,-999.0,'1111122,1111122,1111122' 
DISL,ioos:station:DISL:DISL:1,2017-10-03T05:30:00Z,30.2513,-88.0778,9.68,7.61,77.55,-999.0,'1111122,1111122,1111122' 
DISL,ioos:station:DISL:DISL:1,2017-10-03T06:00:00Z,30.2513,-88.0778,9.68,7.48,81.3,-999.0,'1111122,1111122,1111122' 
DISL,ioos:station:DISL:DISL:1,2017-10-03T06:30:00Z,30.2513,-88.0778,9.68,8.04,75.99,-999.0,'1111122,1111122,1111122' 
DISL,ioos:station:DISL:DISL:1,2017-10-03T07:00:00Z,30.2513,-88.0778,9.68,8.09,81.9,-999.0,'1111122,1111122,1111122' 
DISL,ioos:station:DISL:DISL:1,2017-10-03T07:30:00Z,30.2513,-88.0778,9.68,7.95,82.5,-999.0,'1111122,1111122,1111122' 
DISL,ioos:station:DISL:DISL:1,2017-10-03T08:00:00Z,30.2513,-88.0778,9.68,7.34,81.4,-999.0,'1111122,1111122,1111122' 
DISL,ioos:station:DISL:DISL:1,2017-10-03T08:30:00Z,30.2513,-88.0778,9.68,11.71,101.4,-999.0,'1111122,1111122,1111122' 
DISL,ioos:station:DISL:DISL:1,2017-10-03T09:00:00Z,30.2513,-88.0778,9.68,11.85,102.4,-999.0,'1111122,1111122,1111122' 
DISL,ioos:station:DISL:DISL:1,2017-10-03T09:30:00Z,30.2513,-88.0778,9.68,12.43,101.5,-999.0,'1111122,1111122,1111122' 
DISL,ioos:station:DISL:DISL:1,2017-10-03T10:00:00Z,30.2513,-88.0778,9.68,11.94,97.3,-999.0,'1111122,1111122,1111122' 
DISL,ioos:station:DISL:DISL:1,2017-10-03T10:30:00Z,30.2513,-88.0778,9.68,10.77,97.0,-999.0,'1111122,1111122,1111122' 
DISL,ioos:station:DISL:DISL:1,2017-10-03T11:00:00Z,30.2513,-88.0778,9.68,10.88,92.4,-999.0,'1111122,1111122,1111122' 
DISL,ioos:station:DISL:DISL:1,2017-10-03T11:30:00Z,30.2513,-88.0778,9.68,10.43,88.3,-999.0,'1111122,1111122,1111122' 
DISL,ioos:station:DISL:DISL:1,2017-10-03T12:00:00Z,30.2513,-88.0778,9.68,9.89,89.2,-999.0,'1111122,1111122,1111122' 
DISL,ioos:station:DISL:DISL:1,2017-10-03T12:30:00Z,30.2513,-88.0778,9.68,8.06,70.87,-999.0,'1111122,1111122,1111122' 
DISL,ioos:station:DISL:DISL:1,2017-10-03T13:00:00Z,30.2513,-88.0778,9.68,8.18,67.89,-999.0,'1111122,1111122,1111122' 
DISL,ioos:station:DISL:DISL:1,2017-10-03T13:30:00Z,30.2513,-88.0778,9.68,8.79,70.48,-999.0,'1111122,1111122,1111122' 
DISL,ioos:station:DISL:DISL:1,2017-10-03T14:00:00Z,30.2513,-88.0778,9.68,9.04,77.52,-999.0,'1111122,1111122,1111122' 
DISL,ioos:station:DISL:DISL:1,2017-10-03T14:30:00Z,30.2513,-88.0778,9.68,10.05,75.89,-999.0,'1111122,1111122,1111122' 
DISL,ioos:station:DISL:DISL:1,2017-10-03T15:00:00Z,30.2513,-88.0778,9.68,9.78,79.78,-999.0,'1111122,1111122,1111122' 
DISL,ioos:station:DISL:DISL:1,2017-10-03T15:30:00Z,30.2513,-88.0778,9.68,8.7,77.75,-999.0,'1111122,1111122,1111122' 
DISL,ioos:station:DISL:DISL:1,2017-10-03T16:00:00Z,30.2513,-88.0778,9.68,9.82,86.0,-999.0,'1111122,1111122,1111122' 
DISL,ioos:station:DISL:DISL:1,2017-10-03T16:30:00Z,30.2513,-88.0778,9.68,9.84,83.3,-999.0,'1111122,1111122,1111122' 
DISL,ioos:station:DISL:DISL:1,2017-10-03T17:00:00Z,30.2513,-88.0778,9.68,9.01,83.9,-999.0,'1111122,1111122,1111122' 
DISL,ioos:station:DISL:DISL:1,2017-10-03T17:30:00Z,30.2513,-88.0778,9.68,8.77,85.2,-999.0,'1111122,1111122,1111122' 
DISL,ioos:station:DISL:DISL:1,2017-10-03T18:00:00Z,30.2513,-88.0778,9.68,9.71,90.2,-999.0,'1111122,1111122,1111122' 
DISL,ioos:station:DISL:DISL:1,2017-10-03T18:30:00Z,30.2513,-88.0778,9.68,9.28,89.7,-999.0,'1111122,1111122,1111122' 
DISL,ioos:station:DISL:DISL:1,2017-10-03T19:00:00Z,30.2513,-88.0778,9.68,9.33,88.9,-999.0,'1111122,1111122,1111122' 
DISL,ioos:station:DISL:DISL:1,2017-10-03T19:30:00Z,30.2513,-88.0778,9.68,9.25,100.2,-999.0,'1111122,1111122,1111122' 
DISL,ioos:station:DISL:DISL:1,2017-10-03T20:00:00Z,30.2513,-88.0778,9.68,9.05,108.0,-999.0,'1111122,1111122,1111122' 
DISL,ioos:station:DISL:DISL:1,2017-10-03T20:30:00Z,30.2513,-88.0778,9.68,9.11,110.5,-999.0,'1111122,1111122,1111122' 
DISL,ioos:station:DISL:DISL:1,2017-10-03T21:00:00Z,30.2513,-88.0778,9.68,9.35,108.5,-999.0,'1111122,1111122,1111122' 
DISL,ioos:station:DISL:DISL:1,2017-10-03T21:30:00Z,30.2513,-88.0778,9.68,8.75,109.6,-999.0,'1111122,1111122,1111122' 
DISL,ioos:station:DISL:DISL:1,2017-10-03T22:30:00Z,30.2513,-88.0778,9.68,8.21,108.3,-9999.0,'1111122,1111122,1111122' 
DISL,ioos:station:DISL:DISL:1,2017-10-03T23:30:00Z,30.2513,-88.0778,9.68,6.58,91.3,-9999.0,'1111122,1111122,1111122' 
DISL,ioos:station:DISL:DISL:1,2017-10-04T00:30:00Z,30.2513,-88.0778,9.68,4.44,73.3,-9999.0,'1111122,1111122,1111122' 
DISL,ioos:station:DISL:DISL:1,2017-10-04T01:30:00Z,30.2513,-88.0778,9.68,4.63,37.05,-9999.0,'1111122,1111122,1111122' 
DISL,ioos:station:DISL:DISL:1,2017-10-04T02:30:00Z,30.2513,-88.0778,9.68,6.25,42.64,-9999.0,'1111122,1111122,1111122' 
DISL,ioos:station:DISL:DISL:1,2017-10-04T03:30:00Z,30.2513,-88.0778,9.68,8.47,48.29,-9999.0,'1111122,1111122,1111122' 
DISL,ioos:station:DISL:DISL:1,2017-10-04T04:30:00Z,30.2513,-88.0778,9.68,9.52,56.93,-9999.0,'1111122,1111122,1111122' 
DISL,ioos:station:DISL:DISL:1,2017-10-04T05:30:00Z,30.2513,-88.0778,9.68,9.56,68.36,-9999.0,'1111122,1111122,1111122' 
DISL,ioos:station:DISL:DISL:1,2017-10-04T06:30:00Z,30.2513,-88.0778,9.68,9.07,71.78,-9999.0,'1111122,1111122,1111122' 
DISL,ioos:station:DISL:DISL:1,2017-10-04T07:30:00Z,30.2513,-88.0778,9.68,7.77,67.04,-9999.0,'1111122,1111122,1111122' 
DISL,ioos:station:DISL:DISL:1,2017-10-04T08:30:00Z,30.2513,-88.0778,9.68,8.63,70.59,-9999.0,'1111122,1111122,1111122' 
DISL,ioos:station:DISL:DISL:1,2017-10-04T09:30:00Z,30.2513,-88.0778,9.68,9.8,74.23,-9999.0,'1111122,1111122,1111122' 
DISL,ioos:station:DISL:DISL:1,2017-10-04T11:00:00Z,30.2513,-88.0778,9.68,9.98,70.11,-9999.0,'1111122,1111122,1111122' 
DISL,ioos:station:DISL:DISL:1,2017-10-04T12:30:00Z,30.2513,-88.0778,9.68,9.31,68.18,-9999.0,'1111122,1111122,1111122' 
DISL,ioos:station:DISL:DISL:1,2017-10-04T13:30:00Z,30.2513,-88.0778,9.68,9.14,68.47,-9999.0,'1111122,1111122,1111122' 
DISL,ioos:station:DISL:DISL:1,2017-10-04T14:30:00Z,30.2513,-88.0778,9.68,8.29,72.63,-9999.0,'1111122,1111122,1111122' 
DISL,ioos:station:DISL:DISL:1,2017-10-04T15:30:00Z,30.2513,-88.0778,9.68,8.98,78.52,-9999.0,'1111122,1111122,1111122' 
DISL,ioos:station:DISL:DISL:1,2017-10-04T16:30:00Z,30.2513,-88.0778,9.68,8.78,91.0,-9999.0,'1111122,1111122,1111122' 
DISL,ioos:station:DISL:DISL:1,2017-10-04T17:30:00Z,30.2513,-88.0778,9.68,8.05,79.43,-9999.0,'1111122,1111122,1111122' 
DISL,ioos:station:DISL:DISL:1,2017-10-04T18:30:00Z,30.2513,-88.0778,9.68,5.91,94.0,-9999.0,'1111122,1111122,1111122' 
DISL,ioos:station:DISL:DISL:1,2017-10-04T19:30:00Z,30.2513,-88.0778,9.68,7.43,104.3,-9999.0,'1111122,1111122,1111122' 
DISL,ioos:station:DISL:DISL:1,2017-10-04T20:30:00Z,30.2513,-88.0778,9.68,6.73,102.7,-9999.0,'1111122,1111122,1111122' 
DISL,ioos:station:DISL:DISL:1,2017-10-04T21:30:00Z,30.2513,-88.0778,9.68,6.89,107.7,-9999.0,'1111122,1111122,1111122' 
DISL,ioos:station:DISL:DISL:1,2017-10-04T22:30:00Z,30.2513,-88.0778,9.68,4.34,109.9,-9999.0,'1111122,1111122,1111122' 
DISL,ioos:station:DISL:DISL:1,2017-10-04T23:30:00Z,30.2513,-88.0778,9.68,3.27,102.4,-9999.0,'1111122,1111122,1111122' 
DISL,ioos:station:DISL:DISL:1,2017-10-05T00:30:00Z,30.2513,-88.0778,9.68,1.95,74.67,-9999.0,'1111122,1111122,1111122' 
DISL,ioos:station:DISL:DISL:1,2017-10-05T01:30:00Z,30.2513,-88.0778,9.68,2.05,34.86,-9999.0,'1111122,1111122,1111122' 
DISL,ioos:station:DISL:DISL:1,2017-10-05T02:30:00Z,30.2513,-88.0778,9.68,3.97,42.77,-9999.0,'1111122,1111122,1111122' 
DISL,ioos:station:DISL:DISL:1,2017-10-05T03:30:00Z,30.2513,-88.0778,9.68,7.06,60.13,-9999.0,'1111122,1111122,1111122' 
DISL,ioos:station:DISL:DISL:1,2017-10-05T04:30:00Z,30.2513,-88.0778,9.68,7.35,52.95,-9999.0,'1111122,1111122,1111122' 
DISL,ioos:station:DISL:DISL:1,2017-10-05T05:30:00Z,30.2513,-88.0778,9.68,9.34,64.87,-9999.0,'1111122,1111122,1111122' 
DISL,ioos:station:DISL:DISL:1,2017-10-05T06:00:00Z,30.2513,-88.0778,9.68,8.88,71.09,-9999.0,'1111122,1111122,1111122' 
DISL,ioos:station:DISL:DISL:1,2017-10-05T07:30:00Z,30.2513,-88.0778,9.68,8.62,71.62,-9999.0,'1111122,1111122,1111122' 
DISL,ioos:station:DISL:DISL:1,2017-10-05T08:00:00Z,30.2513,-88.0778,9.68,8.64,71.75,-9999.0,'1111122,1111122,1111122' 
DISL,ioos:station:DISL:DISL:1,2017-10-05T09:30:00Z,30.2513,-88.0778,9.68,8.38,73.3,-9999.0,'1111122,1111122,1111122' 
DISL,ioos:station:DISL:DISL:1,2017-10-05T10:30:00Z,30.2513,-88.0778,9.68,8.62,72.67,-9999.0,'1111122,1111122,1111122' 
DISL,ioos:station:DISL:DISL:1,2017-10-05T11:30:00Z,30.2513,-88.0778,9.68,8.92,69.18,-9999.0,'1111122,1111122,1111122' 
DISL,ioos:station:DISL:DISL:1,2017-10-05T12:30:00Z,30.2513,-88.0778,9.68,8.92,72.67,-9999.0,'1111122,1111122,1111122' 
DISL,ioos:station:DISL:DISL:1,2017-10-05T13:30:00Z,30.2513,-88.0778,9.68,8.77,70.89,-9999.0,'1111122,1111122,1111122' 
DISL,ioos:station:DISL:DISL:1,2017-10-05T14:30:00Z,30.2513,-88.0778,9.68,8.58,70.58,-9999.0,'1111122,1111122,1111122' 
DISL,ioos:station:DISL:DISL:1,2017-10-05T15:30:00Z,30.2513,-88.0778,9.68,7.43,68.89,-9999.0,'1111122,1111122,1111122' 
DISL,ioos:station:DISL:DISL:1,2017-10-05T16:30:00Z,30.2513,-88.0778,9.68,5.43,62.66,-9999.0,'1111122,1111122,1111122' 
DISL,ioos:station:DISL:DISL:1,2017-10-05T17:30:00Z,30.2513,-88.0778,9.68,4.1,37.18,-9999.0,'1111122,1111122,1111122' 
DISL,ioos:station:DISL:DISL:1,2017-10-05T18:30:00Z,30.2513,-88.0778,9.68,2.38,8.95,-9999.0,'1111122,1111122,1111122' 
DISL,ioos:station:DISL:DISL:1,2017-10-05T19:30:00Z,30.2513,-88.0778,9.68,3.95,347.3,-9999.0,'1111122,1111122,1111122' 
DISL,ioos:station:DISL:DISL:1,2017-10-05T20:30:00Z,30.2513,-88.0778,9.68,3.15,345.9,-9999.0,'1111122,1111122,1111122' 
DISL,ioos:station:DISL:DISL:1,2017-10-05T21:30:00Z,30.2513,-88.0778,9.68,1.19,341.6,-9999.0,'1111122,1111122,1111122' 
DISL,ioos:station:DISL:DISL:1,2017-10-05T22:30:00Z,30.2513,-88.0778,9.68,1.09,171.8,-9999.0,'1111122,1111122,1111122' 
DISL,ioos:station:DISL:DISL:1,2017-10-05T23:30:00Z,30.2513,-88.0778,9.68,1.16,155.8,-9999.0,'1111122,1111122,1111122' 
DISL,ioos:station:DISL:DISL:1,2017-10-06T00:30:00Z,30.2513,-88.0778,9.68,1.39,83.2,-9999.0,'1111122,1111122,1111122' 
DISL,ioos:station:DISL:DISL:1,2017-10-06T01:30:00Z,30.2513,-88.0778,9.68,5.63,46.02,-9999.0,'1111122,1111122,1111122' 
DISL,ioos:station:DISL:DISL:1,2017-10-06T02:30:00Z,30.2513,-88.0778,9.68,6.82,37.47,-9999.0,'1111122,1111122,1111122' 
DISL,ioos:station:DISL:DISL:1,2017-10-06T03:30:00Z,30.2513,-88.0778,9.68,8.05,40.92,-9999.0,'1111122,1111122,1111122' 
DISL,ioos:station:DISL:DISL:1,2017-10-06T04:30:00Z,30.2513,-88.0778,9.68,7.8,41.33,-9999.0,'1111122,1111122,1111122' 
DISL,ioos:station:DISL:DISL:1,2017-10-06T05:30:00Z,30.2513,-88.0778,9.68,7.27,47.92,-9999.0,'1111122,1111122,1111122' 
DISL,ioos:station:DISL:DISL:1,2017-10-06T06:30:00Z,30.2513,-88.0778,9.68,7.79,53.9,-9999.0,'1111122,1111122,1111122' 
DISL,ioos:station:DISL:DISL:1,2017-10-06T07:30:00Z,30.2513,-88.0778,9.68,8.0,62.75,-9999.0,'1111122,1111122,1111122' 
DISL,ioos:station:DISL:DISL:1,2017-10-06T08:30:00Z,30.2513,-88.0778,9.68,7.67,65.09,-9999.0,'1111122,1111122,1111122' 
DISL,ioos:station:DISL:DISL:1,2017-10-06T09:30:00Z,30.2513,-88.0778,9.68,7.98,61.16,-9999.0,'1111122,1111122,1111122' 
DISL,ioos:station:DISL:DISL:1,2017-10-06T10:30:00Z,30.2513,-88.0778,9.68,7.99,58.46,-9999.0,'1111122,1111122,1111122' 
DISL,ioos:station:DISL:DISL:1,2017-10-06T11:30:00Z,30.2513,-88.0778,9.68,8.33,65.22,-9999.0,'1111122,1111122,1111122' 
DISL,ioos:station:DISL:DISL:1,2017-10-06T12:30:00Z,30.2513,-88.0778,9.68,8.65,66.7,-9999.0,'1111122,1111122,1111122' 